Temp
6 5 5 5 5 5 5 5 5 5 5 5 5 5 4 4 4 4 4 4 4 4 3 3 3 2 2 1 1 1 1 1 1 1 1 1 1 2 2 2 3 3 3 3 3 3 3 3 3 3 3 3 3 3 3 4 4 3 3 3 3 3 3 3 4 4 4 4 4
6 6 6 5 5 5 4 5 5 5 5 5 5 4 4 4 4 4 4 4 3 3 3 3 2 2 2 2 2 1 1 1 1 1 1 1 1 2 2 2 2 2 2 2 2 2 2 2 2 2 2 2 3 3 2 3 3 3 3 3 3 3 3 3 3 4 3 3 3
6 6 6 5 5 4 4 4 4 4 4 4 4 4 4 4 4 4 3 3 3 3 3 2 2 2 2 2 2 2 1 1 1 1 1 1 1 1 2 2 2 2 2 2 2 2 2 2 2 2 2 2 2 2 2 2 2 2 2 2 2 2 2 3 3 3 3 3 3
6 6 6 5 5 4 4 4 4 4 4 4 4 4 3 3 3 3 3 3 3 2 2 2 2 2 2 2 2 2 2 1 1 1 1 1 1 1 1 1 1 2 2 2 2 2 2 2 2 2 2 2 2 1 2 2 2 2 2 2 2 2 2 2 2 2 2 3 3
6 6 6 5 5 4 4 4 4 4 4 4 4 3 3 3 3 3 3 3 3 2 2 2 2 3 3 2 2 2 2 2 2 1 1 1 1 1 1 1 1 1 2 2 3 3 3 3 2 2 2 2 2 2 2 2 2 2 1 1 1 2 2 2 2 2 2 2 2
6 6 6 5 5 4 4 4 4 4 3 3 3 3 3 3 3 3 3 3 3 3 3 3 3 3 3 2 2 2 2 2 2 2 2 1 1 1 1 1 1 1 2 2 3 3 3 3 2 2 2 2 2 2 3 3 2 2 1 1 1 1 1 1 1 1 1 1 2
6 6 5 5 5 5 4 4 4 3 3 4 3 3 3 3 3 3 3 3 3 3 3 3 3 3 3 3 2 2 2 2 2 2 2 2 1 2 2 2 2 2 2 2 2 3 3 3 2 2 2 2 2 2 3 2 2 1 1 1 1 1 1 1 1 1 1 1 1
5 5 5 5 5 5 5 4 4 4 4 4 4 4 4 4 3 3 3 3 3 3 3 3 3 3 3 3 3 2 2 2 2 2 2 2 1 1 2 2 2 2 2 2 2 2 2 2 2 2 1 1 1 1 2 2 2 1 0 0 1 1 1 1 1 1 1 1 1
5 5 5 5 5 5 5 5 4 4 4 4 4 4 4 3 3 3 3 3 3 3 4 3 3 3 3 3 3 3 3 2 2 2 2 2 1 1 1 1 1 1 1 1 1 2 2 2 2 2 1 1 1 1 1 2 2 1 1 0 0 0 0 1 1 1 0 0 0
5 5 5 5 5 5 5 5 5 5 5 4 4 4 4 4 4 3 3 3 3 4 4 4 4 3 3 3 3 3 3 2 2 2 2 2 1 1 1 1 1 1 1 1 1 1 1 1 1 1 2 2 1 1 1 1 2 2 1 0 0 -0 -0 0 0 0 0 -0 0
6 6 5 5 5 5 5 5 5 5 5 4 4 4 4 4 4 4 4 4 4 4 4 4 4 3 3 3 3 3 3 2 2 2 2 2 1 1 1 1 1 0 0 1 1 1 0 1 1 1 2 2 1 1 1 1 1 1 1 1 0 0 0 -0 -0 -0 -0 -0 0
6 6 6 6 5 5 5 5 5 5 5 5 4 4 4 4 4 4 4 4 4 4 4 4 4 3 3 3 3 3 3 2 2 2 2 1 1 1 0 0 0 0 0 0 0 0 0 0 -0 0 1 1 1 1 1 0 0 1 1 1 0 0 0 -0 -0 -1 -1 -0 -0
6 6 6 6 5 5 5 5 5 5 5 5 5 4 4 4 4 4 4 4 4 3 3 3 3 3 3 3 3 3 2 2 2 2 2 1 1 1 0 0 -0 -0 -0 -0 -0 0 0 -0 -1 -1 -1 -0 0 1 1 0 -0 -0 -0 -0 -0 -0 -0 -0 -1 -1 -1 -1 -1
7 6 6 6 6 5 5 5 5 5 5 5 5 5 4 4 4 4 4 4 3 3 3 3 3 3 3 3 3 2 2 2 2 2 2 1 1 1 0 0 -0 -0 -0 -0 -0 -0 -0 -0 -1 -1 -1 -1 -1 -1 -0 -0 -1 -1 -1 -1 -1 -1 -1 -1 -1 -1 -2 -1 -1
7 6 6 6 6 5 5 5 5 5 5 5 5 5 5 4 4 4 4 4 3 3 3 3 3 3 3 3 3 2 2 2 2 2 2 2 1 1 0 0 -0 -0 -0 -0 -0 -0 0 -0 -0 -1 -1 -1 -2 -2 -2 -1 -1 -1 -1 -1 -2 -2 -2 -2 -2 -2 -2 -2 -2
7 7 6 6 6 5 5 5 5 5 5 5 5 5 5 5 4 4 4 4 3 3 3 3 3 3 3 3 2 2 2 2 2 2 2 2 2 1 1 0 -0 -0 -1 -1 -1 -0 -0 0 0 -0 -0 -1 -1 -2 -2 -2 -2 -2 -2 -2 -2 -2 -2 -3 -3 -3 -2 -2 -2
7 7 6 6 6 6 6 5 5 5 5 5 5 5 5 5 5 4 4 4 4 3 3 3 3 3 3 3 3 2 2 2 2 2 2 2 2 2 1 1 0 -0 -1 -1 -1 -1 -1 -0 -0 -0 -0 -0 -1 -1 -1 -2 -2 -2 -2 -2 -3 -3 -3 -3 -3 -3 -3 -2 -2
7 7 6 6 6 6 6 6 6 6 6 6 6 5 5 5 5 5 4 4 4 4 4 4 3 3 3 3 3 3 3 2 2 2 2 2 2 2 1 1 0 -0 -1 -1 -1 -1 -1 -1 -1 -1 -1 -1 -1 -1 -1 -2 -2 -2 -2 -3 -3 -3 -3 -3 -3 -3 -3 -3 -2
7 7 7 6 6 6 6 6 6 6 6 6 6 6 5 5 5 5 5 4 4 4 4 4 3 3 3 3 3 3 3 2 2 2 2 2 2 2 1 1 0 -0 -1 -1 -1 -1 -1 -1 -1 -1 -1 -1 -1 -1 -1 -2 -2 -2 -2 -2 -3 -3 -3 -3 -3 -3 -3 -3 -3
8 7 7 7 7 7 6 6 6 6 6 6 6 6 6 6 5 5 5 4 4 4 4 3 3 3 3 3 3 3 2 2 2 2 2 2 2 2 1 1 0 -0 -1 -1 -1 -1 -1 -1 -1 -1 -1 -2 -2 -2 -2 -2 -2 -2 -2 -2 -3 -3 -3 -3 -3 -3 -3 -3 -3
8 8 7 7 7 7 7 6 6 6 6 6 6 6 6 5 5 5 5 4 4 4 3 3 3 3 3 3 3 3 2 2 2 2 2 2 1 1 1 1 0 -0 -1 -1 -1 -1 -1 -1 -1 -1 -2 -2 -2 -2 -3 -3 -3 -3 -3 -3 -3 -3 -3 -3 -3 -3 -3 -3 -3
8 8 7 7 7 7 7 7 6 6 6 6 6 6 6 5 5 5 4 4 4 3 3 3 3 3 3 3 3 3 2 2 2 1 1 1 1 1 1 0 -0 -0 -1 -1 -1 -1 -1 -1 -1 -1 -1 -2 -2 -2 -3 -3 -3 -3 -3 -3 -3 -3 -3 -3 -3 -3 -3 -3 -3
8 8 7 7 7 7 7 7 6 6 6 6 6 6 5 5 5 4 4 4 3 3 3 3 3 2 2 3 2 2 2 2 1 1 1 0 0 0 -0 -0 -0 -0 -1 -1 -1 -1 -1 -1 -1 -1 -1 -2 -2 -2 -3 -3 -3 -3 -3 -3 -3 -3 -3 -3 -3 -3 -3 -3 -3
8 7 7 7 7 7 7 6 6 6 6 6 5 5 5 5 4 4 4 3 3 3 3 3 2 2 2 2 2 2 2 2 1 1 0 -0 -0 -0 -0 -0 -0 -0 -0 -0 -0 -0 -0 -1 -1 -1 -1 -2 -2 -2 -3 -3 -3 -3 -3 -3 -3 -3 -3 -3 -3 -3 -3 -3 -3
8 8 7 7 7 7 7 6 6 6 5 5 5 5 4 4 4 3 3 3 3 3 2 2 2 2 2 2 2 1 1 1 1 1 -0 -1 -1 -1 -0 -0 -0 -0 -0 -0 0 0 0 -0 -1 -1 -2 -2 -2 -2 -2 -3 -3 -3 -3 -3 -3 -3 -3 -4 -4 -4 -3 -3 -3
8 7 7 7 7 7 6 6 6 5 5 5 4 4 4 4 4 3 3 3 3 2 2 2 2 2 2 1 1 1 1 1 1 0 -0 -1 -1 -1 -1 -1 -1 -0 -0 0 0 0 -0 -1 -1 -2 -2 -2 -2 -3 -3 -3 -3 -3 -3 -3 -3 -3 -3 -3 -4 -4 -4 -3 -3
7 7 7 7 7 6 6 6 5 5 4 4 4 4 4 4 3 3 3 3 3 2 2 2 2 2 1 1 1 1 1 1 1 0 0 -0 -1 -1 -1 -1 -1 -1 -0 -0 -0 -0 -1 -1 -2 -2 -2 -3 -3 -3 -3 -3 -3 -3 -3 -3 -3 -3 -3 -3 -3 -4 -4 -4 -3
8 7 7 6 6 6 6 5 5 4 4 4 4 4 3 3 3 3 3 2 2 2 2 2 2 1 1 1 1 1 1 1 1 0 -0 -0 -1 -1 -1 -1 -1 -1 -1 -0 -0 -1 -1 -1 -2 -2 -3 -3 -3 -3 -3 -3 -3 -3 -3 -3 -3 -3 -3 -3 -3 -3 -4 -4 -4
7 7 6 6 6 5 5 4 4 4 4 4 3 3 3 3 3 2 2 2 2 2 1 2 2 1 1 1 1 1 1 1 1 0 -0 -1 -1 -1 -1 -1 -1 -1 -1 -1 -1 -1 -1 -2 -2 -2 -2 -2 -3 -3 -3 -3 -4 -4 -4 -4 -3 -3 -3 -3 -3 -3 -3 -3 -4
6 6 5 5 5 5 4 4 4 4 4 3 3 3 3 2 2 2 2 2 1 1 2 2 1 1 1 1 1 1 0 0 0 0 -0 -0 -1 -1 -1 -1 -1 -1 -1 -1 -1 -1 -2 -2 -2 -2 -2 -2 -2 -2 -2 -3 -3 -3 -3 -3 -3 -3 -3 -3 -3 -3 -3 -3 -3
5 5 5 5 4 4 4 4 4 3 3 3 3 3 2 2 2 2 2 2 2 2 2 2 1 1 1 1 1 0 0 0 -0 -0 -0 -0 -1 -1 -1 -1 -1 -1 -1 -1 -1 -1 -2 -2 -2 -2 -2 -2 -2 -2 -2 -2 -2 -2 -3 -3 -3 -3 -3 -2 -2 -3 -3 -3 -3
5 5 5 4 4 4 4 3 3 3 3 3 3 3 3 3 2 2 2 2 2 2 1 1 1 1 1 1 1 0 0 -0 -0 -0 -0 -0 -1 -1 -1 -2 -2 -2 -1 -1 -1 -2 -2 -2 -2 -2 -2 -2 -2 -2 -2 -2 -2 -2 -2 -2 -2 -2 -2 -2 -2 -2 -2 -2 -3
5 5 5 4 4 4 4 3 3 3 3 3 3 3 3 3 2 2 2 2 2 2 1 1 1 1 1 0 0 0 -0 -0 -0 -0 -1 -1 -1 -1 -2 -2 -2 -2 -2 -2 -2 -2 -2 -2 -2 -2 -2 -2 -2 -2 -2 -2 -2 -2 -2 -2 -2 -2 -2 -2 -2 -2 -2 -2 -2
5 5 5 4 4 4 4 4 4 4 3 3 3 3 3 3 2 2 2 2 2 2 2 2 1 1 1 1 0 -0 -0 -0 -0 -1 -1 -1 -1 -2 -2 -2 -2 -2 -2 -2 -2 -2 -2 -2 -2 -2 -2 -2 -2 -2 -2 -2 -2 -2 -2 -1 -2 -2 -2 -2 -2 -2 -2 -2 -2
6 5 5 4 4 4 4 4 4 4 4 3 3 3 3 3 3 3 3 3 2 2 2 2 2 1 1 1 1 0 -0 -0 -1 -1 -1 -1 -1 -2 -2 -2 -2 -2 -2 -2 -2 -2 -2 -3 -3 -3 -2 -2 -2 -2 -2 -2 -2 -2 -2 -2 -2 -2 -2 -2 -2 -2 -2 -2 -2
6 6 6 5 5 4 4 4 4 4 4 4 3 3 3 3 3 3 3 3 2 2 2 1 1 1 1 0 0 0 -0 -0 -1 -1 -1 -1 -1 -2 -2 -2 -2 -2 -2 -2 -2 -2 -2 -3 -3 -3 -2 -2 -2 -2 -2 -2 -2 -2 -2 -2 -2 -2 -2 -2 -2 -2 -2 -2 -2
6 6 6 6 5 5 5 5 4 4 4 4 4 4 4 4 3 3 3 3 2 2 1 1 1 1 1 0 0 0 0 0 -0 -1 -1 -1 -1 -2 -2 -2 -2 -2 -2 -2 -2 -2 -2 -3 -3 -3 -2 -2 -2 -2 -2 -2 -2 -2 -2 -2 -2 -2 -2 -2 -2 -2 -2 -2 -2
7 6 6 6 6 5 5 5 5 5 5 5 4 4 4 4 3 3 3 3 2 2 1 1 1 1 1 1 1 1 1 0 -0 -0 -1 -1 -1 -1 -1 -2 -2 -2 -2 -2 -2 -2 -2 -2 -3 -3 -2 -2 -2 -2 -2 -2 -2 -2 -2 -2 -2 -2 -2 -2 -2 -2 -2 -2 -2
6 6 6 6 6 5 5 5 5 5 5 5 4 4 4 4 4 3 3 3 3 2 2 2 1 1 1 1 1 1 1 1 0 0 -0 -0 -0 -1 -1 -2 -2 -2 -2 -1 -1 -1 -2 -2 -2 -3 -3 -2 -2 -2 -2 -2 -2 -2 -2 -2 -2 -2 -2 -1 -1 -2 -2 -2 -2
6 6 6 6 5 5 5 5 5 5 5 5 4 4 4 4 4 4 3 3 3 2 2 2 2 2 1 1 1 0 0 1 1 1 0 0 -0 -0 -1 -1 -2 -2 -2 -2 -1 -1 -2 -2 -2 -2 -3 -3 -3 -2 -2 -2 -2 -2 -2 -2 -2 -2 -2 -1 -1 -1 -1 -1 -2
6 6 6 6 5 5 5 5 5 5 5 5 5 4 4 4 4 3 3 3 3 3 2 2 2 2 1 1 1 0 0 0 1 1 1 1 0 -0 -1 -1 -1 -1 -2 -2 -1 -1 -2 -2 -2 -2 -3 -3 -3 -3 -3 -2 -2 -2 -2 -2 -2 -2 -1 -1 -1 -1 -1 -1 -1
Height
793 793 794 794 795 795 796 796 797 797 798 798 799 799 799 800 800 800 800 801 801 801 801 802 802 802 801 801 802 802 802 802 803 803 804 804 804 804 804 804 803 803 803 803 803 803 804 804 804 804 804 804 804 804 804 804 804 805 805 805 805 805 805 805 805 805 805 806 806
791 792 792 793 793 794 795 795 795 796 796 797 797 798 798 799 799 800 800 800 800 800 800 800 800 800 801 801 801 801 802 802 802 802 803 803 803 803 803 803 803 803 803 803 803 803 803 803 803 803 803 803 804 804 804 804 804 804 804 805 805 805 805 805 805 805 805 805 805
790 791 791 792 792 793 793 794 795 795 795 796 796 797 797 798 798 799 799 799 799 799 800 800 800 800 800 800 800 800 801 801 801 802 802 802 802 802 802 802 802 802 802 802 802 802 802 802 802 802 803 803 803 803 803 803 803 803 804 804 804 804 804 804 805 805 805 805 805
789 790 790 791 791 792 792 793 793 794 795 795 795 796 796 796 797 797 798 798 798 798 799 799 799 799 799 799 800 800 800 800 801 801 801 801 801 801 801 801 801 801 801 801 801 801 801 801 801 801 802 802 802 802 803 802 802 803 803 803 803 803 803 804 804 804 804 804 804
789 789 790 790 791 791 792 792 793 794 794 794 794 795 795 795 795 796 796 797 797 797 797 798 798 798 798 798 799 799 799 800 800 800 800 800 800 800 800 800 800 800 800 800 800 800 800 800 801 801 801 801 801 801 801 801 801 802 802 802 802 802 802 803 803 803 803 803 804
788 788 789 790 790 791 791 792 792 793 793 793 793 794 794 794 795 795 795 796 796 796 796 796 796 797 797 797 798 798 798 799 799 799 799 800 800 800 800 800 800 800 800 800 800 800 800 800 800 800 800 800 800 800 800 800 800 800 801 801 801 801 801 802 802 802 802 802 803
788 788 788 789 790 790 790 791 791 792 792 792 793 793 793 794 794 795 795 795 795 795 795 795 795 796 796 796 797 797 797 798 798 798 798 798 799 798 798 799 798 798 798 798 798 799 799 799 799 799 799 799 799 799 799 799 799 800 800 800 800 800 800 800 800 801 801 801 802
787 787 788 788 789 789 790 790 790 791 791 791 792 792 793 793 794 794 794 794 794 794 794 794 795 795 795 795 795 796 796 796 797 797 797 797 797 797 797 797 797 797 797 797 797 797 797 798 798 798 798 798 798 798 798 798 798 798 799 799 799 799 799 799 799 800 800 800 801
786 786 787 787 788 788 789 789 790 790 790 791 791 791 792 792 792 793 793 793 793 793 793 793 793 794 794 794 794 795 795 795 795 795 796 796 796 796 796 796 796 796 796 796 796 796 796 796 796 797 797 797 797 797 797 796 797 797 797 798 798 798 798 798 798 798 799 799 799
785 785 786 786 787 787 787 788 788 789 789 790 790 790 791 791 791 791 791 791 791 791 792 792 792 792 793 793 793 793 793 794 794 794 794 794 795 795 795 795 795 795 795 795 795 795 795 795 795 795 795 795 795 795 795 795 795 795 796 796 796 796 797 797 797 797 797 797 797
783 784 784 785 785 786 786 787 787 787 788 788 789 789 789 789 790 790 790 790 790 790 790 790 790 791 791 791 791 791 792 792 792 792 793 793 793 793 794 794 794 794 794 794 794 794 794 794 794 794 794 794 794 794 794 794 794 794 794 795 795 795 795 795 795 795 795 796 796
782 782 783 783 784 784 785 785 785 786 786 786 787 787 787 788 788 788 788 788 789 789 789 789 789 789 790 790 790 790 790 790 790 791 791 791 792 792 792 792 793 793 793 793 793 793 793 793 793 793 793 793 793 793 793 793 793 793 793 793 794 794 794 794 794 795 795 795 795
780 780 781 781 782 782 783 783 783 784 784 785 785 785 785 786 786 786 786 786 787 787 787 787 787 788 788 788 788 789 789 789 789 789 790 790 790 790 791 791 791 791 792 792 792 792 792 792 792 792 792 791 791 791 791 791 792 792 792 792 792 792 793 793 793 794 794 794 794
778 778 779 779 780 780 781 781 781 782 782 783 783 783 784 784 784 785 785 785 785 785 785 785 786 786 786 786 787 787 787 787 788 788 788 788 789 789 790 790 790 790 790 790 790 790 790 790 790 791 791 791 790 790 790 790 790 790 791 791 791 791 791 792 792 792 793 793 793
776 776 777 777 778 778 779 779 780 780 780 781 781 782 782 782 782 783 783 783 784 784 784 784 784 785 785 785 785 786 786 786 786 786 787 787 787 788 788 788 789 789 789 789 789 789 789 789 789 789 790 790 790 790 790 789 789 790 790 790 790 790 790 791 791 791 791 791 792
773 774 775 775 776 776 776 777 777 778 778 779 779 780 780 780 781 781 781 782 782 782 783 783 783 783 784 784 784 785 785 785 785 785 785 785 786 786 786 787 787 787 788 788 788 788 788 788 788 788 788 788 788 789 789 789 788 788 789 789 789 789 790 790 790 790 790 790 790
771 772 772 773 774 774 775 775 775 776 777 777 778 778 779 779 779 780 780 780 781 781 781 781 782 782 782 783 783 783 783 784 784 784 784 784 785 785 785 785 785 786 786 786 786 786 786 786 787 787 787 787 787 787 787 787 788 788 788 788 788 788 788 788 789 789 789 789 789
769 770 770 771 771 772 772 773 774 774 775 775 776 776 777 777 778 778 779 779 780 780 780 780 781 781 781 781 782 782 782 782 782 783 783 783 783 783 784 784 784 785 785 785 785 785 785 785 785 785 785 785 786 786 786 786 786 787 787 787 787 787 787 787 787 787 787 788 788
766 767 768 769 769 770 771 771 772 773 773 774 775 775 775 776 776 777 777 778 778 778 779 779 779 780 780 780 780 780 780 781 781 781 781 782 782 782 782 782 783 783 784 784 784 784 784 784 784 784 784 784 785 785 785 785 785 785 786 786 786 786 786 786 786 786 786 786 786
764 765 766 766 767 768 769 770 770 771 772 772 773 773 774 775 775 775 776 776 777 777 777 778 778 778 778 779 779 779 779 780 780 780 780 780 780 780 781 781 781 782 782 782 782 783 783 783 783 783 783 783 783 783 784 784 784 784 785 785 785 785 785 785 785 785 785 785 785
762 763 764 765 765 766 767 768 769 770 770 770 771 772 772 773 774 774 775 775 775 776 776 776 776 777 777 777 777 778 778 778 778 779 779 779 779 779 780 780 780 780 780 780 781 781 781 781 782 782 782 782 782 782 782 783 783 783 783 783 783 784 784 784 784 784 784 784 784
760 761 762 763 764 765 765 766 767 768 768 769 769 770 770 771 772 772 773 774 774 774 774 775 775 775 775 776 776 776 777 777 777 777 777 778 778 778 778 778 779 779 779 779 779 780 780 780 780 780 780 780 781 781 781 781 781 782 782 782 782 782 782 782 783 783 783 783 783
758 759 760 761 762 763 764 764 765 765 766 767 767 768 769 769 770 770 771 772 772 772 773 773 774 774 774 775 775 775 775 775 775 776 776 776 776 777 777 777 777 777 777 777 778 778 778 778 779 779 779 779 779 780 780 780 780 780 780 781 781 781 781 781 781 781 781 781 781
756 757 758 759 760 761 761 762 763 763 764 765 765 766 767 767 768 769 769 770 770 770 771 771 772 772 773 773 773 774 774 774 774 774 775 775 775 775 775 775 776 776 776 776 776 776 777 777 777 777 777 777 778 778 778 779 779 779 779 780 780 780 780 780 780 780 780 780 780
754 755 756 757 758 759 760 760 761 761 762 763 763 764 765 765 766 767 767 768 768 769 769 770 770 771 771 771 772 772 772 772 772 773 773 773 774 774 774 774 774 774 774 774 775 775 775 775 776 776 776 776 776 776 777 777 777 777 778 778 778 778 779 778 778 778 779 779 779
752 753 754 755 755 756 757 758 759 759 760 761 761 762 763 763 764 765 765 766 766 767 767 768 769 769 769 770 770 770 770 770 771 771 771 772 772 772 772 772 772 772 772 773 773 774 774 774 775 775 775 775 775 775 775 775 775 776 776 776 777 777 777 777 777 777 777 777 777
750 751 752 752 753 754 755 755 756 757 758 759 760 760 761 761 762 763 763 764 764 765 765 766 766 767 767 768 768 768 769 769 769 770 770 770 770 771 771 771 771 771 771 771 772 772 773 773 774 774 774 774 774 774 774 774 774 775 775 775 775 775 775 775 776 776 776 776 776
748 749 750 750 751 752 753 754 755 755 756 757 758 758 759 760 760 760 761 762 762 763 764 764 765 765 766 766 766 766 767 767 768 768 768 769 769 769 769 770 769 769 769 770 770 771 771 772 772 773 773 773 773 773 773 773 773 773 773 773 773 774 774 774 774 775 775 775 775
746 747 748 749 749 750 751 752 753 753 754 755 756 756 757 758 758 759 759 760 760 761 762 762 763 763 764 764 765 765 765 765 766 766 767 767 767 767 768 768 768 768 768 769 769 770 770 771 771 772 772 773 773 773 772 772 772 772 772 772 772 772 772 772 772 773 773 773 773
744 745 746 747 748 748 749 750 751 752 753 754 754 755 755 756 756 757 758 758 759 760 760 760 761 761 762 762 763 763 764 764 765 765 765 765 766 766 766 766 766 766 767 767 768 768 769 769 770 770 771 772 772 772 772 771 771 771 771 771 770 770 771 771 771 771 772 772 772
743 744 745 745 746 747 748 749 750 750 751 752 752 753 754 754 755 755 756 757 757 758 759 759 760 760 760 761 762 762 762 763 763 763 764 764 764 765 765 765 765 765 765 766 766 767 767 768 768 769 770 770 771 771 771 771 770 770 770 770 770 770 770 770 770 770 770 770 771
741 742 743 744 745 745 746 747 748 749 750 750 751 751 752 753 753 754 755 755 756 757 757 758 758 759 759 760 760 761 761 761 762 762 762 762 763 763 763 763 763 764 764 764 765 765 766 766 767 767 768 769 770 770 770 770 770 769 769 769 768 769 769 769 769 769 769 770 770
740 741 742 742 743 744 745 746 747 747 748 749 749 750 750 751 752 753 754 754 755 755 756 756 757 757 758 758 759 759 760 760 760 760 761 761 761 762 762 762 762 762 762 763 763 764 764 765 765 766 767 768 768 768 768 768 768 768 768 767 767 767 767 767 767 767 768 768 768
739 740 740 741 742 743 744 744 745 746 746 747 748 749 749 750 751 751 752 753 754 754 755 755 755 756 756 757 758 758 758 759 759 759 760 760 760 760 761 761 760 760 761 761 762 762 763 763 764 765 765 766 767 767 767 767 767 767 766 766 766 766 765 765 766 766 766 766 767
737 738 739 740 741 741 742 743 744 744 745 746 746 747 748 749 749 750 751 752 752 753 753 754 754 755 755 756 756 756 757 757 758 758 758 759 759 759 760 760 759 760 760 760 760 761 761 762 763 763 764 765 765 765 765 765 765 765 765 765 764 764 764 764 764 764 764 765 765
736 736 737 738 739 740 741 741 742 743 744 744 745 745 746 747 748 749 750 750 751 752 752 753 753 754 754 754 755 755 755 756 756 756 757 757 758 758 758 758 758 758 759 759 759 760 760 761 761 762 763 764 764 764 764 764 764 764 763 763 763 762 762 763 763 762 762 763 763
734 735 736 737 738 739 739 740 741 741 742 743 743 744 745 746 747 748 749 749 750 750 751 751 752 752 752 753 753 754 754 755 755 755 755 756 756 756 756 757 757 757 757 758 758 758 759 759 760 761 761 762 762 763 763 763 762 762 761 761 761 761 761 761 761 761 760 760 760
733 734 735 735 736 737 738 739 739 740 740 741 742 743 744 745 745 746 747 748 748 749 750 750 750 751 751 752 752 752 753 753 754 754 754 754 755 755 755 755 755 756 756 756 756 757 757 758 759 759 760 760 761 761 761 761 761 760 760 760 759 759 759 759 759 759 759 758 758
731 732 733 734 735 735 736 737 738 738 739 740 741 742 742 743 744 745 745 746 747 748 748 749 749 750 750 751 751 751 751 752 752 752 753 753 753 753 754 754 754 754 755 755 755 755 756 756 757 758 758 759 760 760 760 760 759 759 759 758 758 758 758 757 757 757 756 756 756
730 731 732 733 734 734 735 735 736 737 738 739 740 740 741 742 743 743 744 745 746 746 747 748 748 749 750 750 750 750 750 750 750 751 751 751 751 752 752 752 752 753 753 753 753 754 754 755 755 756 757 757 758 758 758 758 758 757 757 757 756 756 756 756 755 755 755 754 754
729 730 731 731 732 733 734 735 735 736 737 738 739 740 740 741 741 742 743 744 745 745 746 747 747 748 748 749 749 749 749 749 749 750 750 750 750 750 750 750 751 751 751 751 752 752 753 753 754 754 755 755 756 756 757 757 756 756 755 755 755 755 755 754 754 753 753 753 752
Wind_Speed
19 19 17 16 15 13 12 12 12 12 11 11 10 10 10 11 10 9 9 9 9 8 8 8 7 8 8 9 9 9 9 9 8 8 7 6 6 6 5 5 4 3 3 3 3 3 4 5 5 5 5 6 6 6 6 7 7 6 6 5 5 6 6 5 5 5 5 4 4
20 20 19 18 17 15 13 13 12 12 12 12 11 10 10 10 10 9 9 9 9 8 7 8 8 8 8 8 8 8 7 7 7 6 6 6 6 6 6 5 5 4 4 3 3 3 4 4 5 5 5 5 5 5 5 6 6 6 5 5 5 6 6 5 5 5 5 5 4
19 20 19 18 17 16 15 14 14 13 12 12 12 11 10 9 9 8 8 8 8 8 8 8 8 8 8 8 8 8 7 7 6 6 6 6 6 6 6 5 5 5 4 4 3 4 4 4 5 5 5 5 5 5 5 6 6 6 5 5 5 6 6 5 5 5 5 5 5
19 19 19 19 18 17 16 16 14 13 12 12 12 12 12 11 10 10 9 9 9 9 9 8 9 10 9 9 9 8 8 7 7 7 7 7 7 6 6 6 6 5 5 4 4 4 4 4 5 5 6 6 6 5 6 6 7 6 5 5 6 6 6 5 5 5 5 5 5
19 19 19 19 18 17 16 15 14 13 12 13 14 14 14 15 14 14 13 12 11 11 11 10 11 11 10 10 9 9 9 9 9 8 8 8 8 7 6 6 6 6 6 5 5 4 4 4 5 5 6 7 7 7 8 8 7 6 6 6 6 7 6 6 6 6 6 6 5
18 18 18 18 18 17 16 15 14 13 14 15 15 14 14 15 14 14 13 13 12 12 12 13 13 12 11 11 11 11 11 10 10 9 9 9 8 8 7 7 6 6 6 6 5 5 4 4 5 5 6 7 8 9 9 8 8 7 6 6 6 7 7 7 7 7 7 7 6
17 17 17 17 17 16 16 16 15 15 16 16 15 15 15 14 13 13 12 12 12 13 13 13 13 12 12 12 12 12 12 11 11 10 10 9 9 9 8 8 7 7 7 7 6 5 5 5 5 6 6 7 8 8 9 8 8 8 7 6 6 7 8 8 9 9 9 8 7
16 16 16 15 15 16 16 16 16 16 16 16 16 15 14 14 13 13 12 13 13 14 13 13 13 13 13 12 12 12 12 12 11 11 10 10 10 10 9 9 8 8 7 7 7 6 6 6 6 6 7 7 7 8 8 9 8 8 8 7 7 8 9 10 11 11 10 9 8
16 16 15 15 15 15 15 16 16 16 16 16 15 15 14 13 13 13 13 14 14 14 13 13 13 13 12 12 12 12 12 12 12 12 11 11 11 11 10 10 9 9 8 8 8 7 7 7 7 7 7 7 7 8 9 9 9 9 9 9 8 8 9 11 12 12 11 10 10
16 15 15 15 14 14 15 15 15 16 16 15 15 14 14 14 14 14 14 14 13 13 13 13 12 12 12 12 12 12 12 12 12 12 12 12 12 12 11 10 10 9 9 9 8 8 8 8 8 8 8 8 8 9 10 10 9 9 10 10 10 10 10 11 12 12 12 12 13
15 15 15 14 14 14 14 15 15 15 16 15 15 15 15 14 14 14 14 13 13 13 12 12 12 12 12 12 12 12 12 12 12 12 12 12 12 12 11 11 10 10 10 10 9 9 9 9 9 9 9 8 9 9 10 10 10 10 10 10 10 11 11 11 12 12 13 13 14
15 14 14 14 14 14 14 15 15 16 16 16 15 15 15 14 14 14 13 13 13 13 12 12 12 12 12 12 12 11 11 12 12 12 12 13 12 12 12 11 11 11 10 10 10 10 10 10 10 10 10 9 9 10 10 10 10 10 10 10 11 11 12 12 12 12 13 13 15
15 14 14 14 14 14 15 15 16 16 16 16 15 15 14 14 14 14 13 13 13 13 13 12 12 12 12 12 11 11 11 12 12 12 12 12 12 12 12 12 12 12 11 11 11 11 12 11 10 10 10 10 10 10 10 10 10 10 11 11 11 12 12 12 12 12 12 13 15
16 15 15 15 15 16 16 16 17 16 16 15 15 14 14 14 14 14 14 13 13 13 13 13 13 13 12 12 11 11 11 11 12 12 12 12 13 13 13 13 13 12 12 12 12 13 13 12 11 11 10 10 10 10 10 10 10 11 11 11 11 11 11 11 11 11 12 13 14
18 17 17 16 17 17 17 18 17 17 16 15 15 14 14 14 14 14 14 14 14 14 14 14 13 13 13 12 12 12 12 12 12 12 12 12 13 13 13 13 13 13 13 13 13 13 13 13 12 12 11 11 11 10 10 11 11 11 11 11 11 10 10 10 10 11 11 12 13
19 19 18 18 18 19 19 19 18 17 16 15 15 14 14 14 14 14 14 14 14 14 14 14 14 13 13 13 13 13 12 12 12 12 12 13 13 13 13 13 13 13 13 13 13 14 14 13 13 13 12 12 11 11 11 11 11 11 11 11 11 11 10 10 10 11 11 12 12
20 20 20 20 20 20 20 19 18 17 16 15 14 14 14 14 14 14 14 14 14 14 14 14 14 14 14 14 14 14 13 13 13 13 13 13 13 13 13 13 14 13 13 13 13 13 14 13 13 13 13 12 12 12 11 11 11 12 12 12 12 12 11 11 11 11 12 12 12
21 21 21 21 21 20 20 19 18 17 16 15 15 14 14 14 14 14 14 14 14 14 14 14 14 14 14 15 15 15 14 14 14 13 13 12 12 12 13 13 13 13 13 14 14 13 13 13 13 13 13 13 13 12 12 12 12 12 12 12 12 12 12 12 12 12 12 12 12
21 21 21 21 21 21 20 19 18 17 16 15 15 15 14 14 14 14 14 14 14 14 14 14 15 15 15 15 15 15 15 15 14 14 13 13 13 13 13 13 13 13 14 14 14 14 14 14 14 14 14 13 13 13 12 12 12 12 12 12 12 12 12 12 12 12 13 13 12
22 21 21 21 21 20 20 19 18 17 17 16 16 15 15 15 15 15 15 15 15 15 15 15 15 15 16 16 16 16 16 15 15 14 14 13 13 13 13 13 13 14 14 15 15 15 15 15 15 15 15 14 14 13 13 13 12 12 13 13 13 13 13 13 13 13 13 13 13
22 21 21 21 20 20 19 19 18 17 17 17 17 16 16 16 16 16 16 16 16 16 16 16 16 16 16 16 16 16 16 16 15 15 15 14 14 14 14 14 14 14 15 15 16 16 16 16 16 16 16 15 14 14 13 13 13 13 13 13 13 13 13 13 13 14 14 14 14
22 21 21 20 19 19 18 18 18 18 18 17 17 17 17 17 17 17 17 16 17 17 17 17 17 16 16 16 16 16 16 16 16 16 15 15 15 14 14 14 14 14 15 15 16 16 16 16 17 17 16 15 15 14 14 13 13 13 13 13 13 13 13 13 14 14 15 15 15
21 20 20 19 19 18 18 18 18 18 18 18 18 18 18 18 18 17 17 17 17 18 18 17 17 17 16 16 16 16 16 16 16 16 16 15 15 14 14 14 14 15 15 16 16 16 16 16 16 17 16 16 15 15 14 14 14 13 13 13 13 13 13 13 14 14 15 15 15
20 20 19 19 18 18 18 18 19 19 19 19 19 19 18 18 18 18 18 18 18 18 18 18 17 17 16 16 16 16 16 16 16 16 15 15 15 14 14 15 15 15 16 16 16 16 16 16 16 16 16 15 15 15 14 14 14 14 14 14 13 13 13 14 14 14 15 15 15
20 20 19 19 19 19 19 19 20 20 20 20 19 19 18 18 18 17 17 17 17 17 17 17 16 16 16 16 16 16 17 17 16 16 15 15 15 15 15 15 15 16 16 16 16 16 16 15 15 14 14 14 14 14 14 14 14 14 14 14 14 13 13 14 14 14 15 15 15
20 20 20 20 20 20 20 20 21 20 20 19 19 18 18 17 17 17 17 17 17 17 16 16 16 16 16 16 16 17 17 17 17 16 16 15 15 15 16 16 16 17 17 17 16 16 15 14 14 14 13 13 13 13 13 13 14 14 14 14 14 14 13 13 14 14 15 15 16
20 20 20 20 20 20 21 21 20 20 19 19 18 17 17 16 16 16 16 16 16 16 15 15 15 15 15 16 16 17 17 17 17 17 16 16 16 16 16 16 17 17 18 17 16 15 14 14 14 14 13 13 13 13 13 13 13 13 13 14 14 14 14 14 14 14 14 15 15
21 21 21 21 20 20 21 20 20 19 18 18 17 16 16 16 16 16 16 15 15 15 15 15 15 15 16 16 17 17 17 17 17 17 17 17 17 17 17 17 17 18 18 17 16 15 14 13 14 14 15 14 14 13 13 13 13 13 14 14 14 15 15 15 14 14 14 14 15
21 21 20 20 20 20 20 19 19 19 18 17 16 16 15 16 16 16 16 15 15 15 15 15 16 16 16 16 16 17 17 17 17 17 16 17 17 18 18 18 18 18 18 17 16 15 14 13 14 15 16 16 15 14 14 14 14 14 13 14 14 15 15 15 14 14 13 13 14
21 20 20 19 19 19 19 19 18 17 17 16 15 15 16 16 16 16 16 16 15 15 15 15 15 15 16 16 16 16 16 16 16 16 17 17 18 18 18 18 18 18 18 17 16 15 14 13 14 15 16 17 16 15 15 14 14 14 14 13 14 14 14 14 14 14 14 13 13
20 19 19 19 19 18 18 18 17 16 16 16 16 16 16 16 16 16 16 16 15 15 15 15 15 15 15 15 15 15 15 15 15 16 16 17 18 18 17 17 18 18 17 17 15 14 14 14 14 15 16 17 17 17 16 16 16 15 15 15 14 14 14 14 14 14 14 14 13
19 19 19 18 18 18 17 17 16 16 15 15 16 16 16 16 16 16 15 15 14 14 14 14 15 15 15 14 14 14 14 15 15 16 16 17 17 17 16 17 17 17 17 16 15 14 13 14 15 15 16 16 17 18 18 17 17 16 16 16 16 16 16 15 15 15 15 15 14
19 18 18 18 18 17 16 16 15 15 15 15 15 16 16 15 15 15 15 15 14 14 14 14 15 15 14 14 14 14 14 14 15 15 15 15 16 16 16 16 16 16 16 15 14 14 13 13 14 15 16 16 17 17 18 18 18 17 17 17 17 17 17 17 17 16 16 16 16
18 18 18 18 17 16 16 15 15 15 15 15 15 16 15 15 15 15 15 15 14 14 14 14 14 14 14 14 13 13 14 14 14 14 14 14 15 15 15 15 16 16 16 14 14 13 13 13 14 15 16 16 17 17 17 18 18 18 18 18 18 18 18 18 18 18 18 17 17
18 18 18 17 17 16 16 15 15 15 16 16 16 16 16 16 15 15 15 14 14 14 14 14 14 14 14 14 14 14 14 14 14 14 14 14 14 15 15 15 15 15 15 14 13 12 12 12 14 14 15 15 16 17 17 17 18 18 18 19 18 18 18 19 19 19 19 19 18
18 18 17 17 17 16 16 16 16 16 16 17 17 17 16 16 16 15 15 14 14 14 14 14 14 14 14 14 14 14 14 14 14 14 14 14 14 15 15 15 15 15 14 14 13 12 12 12 13 14 14 15 16 16 16 16 17 17 18 19 19 19 19 19 19 19 20 20 20
17 17 17 17 16 16 16 16 16 17 17 17 17 17 17 16 15 15 15 14 14 14 14 14 14 14 14 14 14 14 14 13 13 13 14 14 14 15 15 15 15 14 14 14 13 12 12 12 13 14 15 15 15 15 15 16 16 17 17 18 18 19 18 18 19 19 20 20 21
17 17 16 16 16 16 16 17 17 17 17 17 17 17 16 16 15 15 15 15 15 14 14 14 14 14 13 13 13 13 13 13 13 13 13 14 14 15 15 15 15 14 14 14 13 12 12 12 13 14 15 15 15 15 15 15 15 16 16 16 17 17 17 17 17 18 19 20 21
16 16 16 16 16 16 16 17 17 17 17 17 16 16 16 15 15 15 15 15 15 14 14 14 13 13 12 12 11 12 12 12 13 13 14 14 14 14 15 15 14 14 14 14 13 12 12 12 13 14 15 16 15 15 15 14 15 15 15 15 16 16 16 16 16 17 18 20 21
16 15 15 16 16 16 16 16 17 16 16 16 16 16 15 15 15 15 15 14 14 14 14 13 13 12 12 11 11 11 12 12 13 13 14 14 14 14 14 15 15 14 14 14 14 13 12 11 12 14 15 16 16 15 15 15 15 15 15 15 15 14 15 15 16 16 17 18 19
16 16 16 16 16 16 17 16 16 16 15 15 15 15 14 14 14 14 14 14 14 14 13 13 12 11 11 11 11 11 12 12 13 13 13 14 14 14 14 15 15 15 15 15 14 14 13 12 12 13 15 16 16 15 15 15 15 15 16 16 15 14 14 14 15 16 17 17 18
Wind_Direction
208 208 208 208 206 206 207 209 209 208 207 207 207 208 208 207 207 208 209 209 210 213 216 218 219 228 236 240 239 242 249 254 255 254 252 254 259 269 276 280 279 277 273 265 256 252 248 242 239 239 242 243 241 241 243 243 241 238 236 239 243 242 241 242 246 249 247 246 245
210 211 211 211 210 208 208 209 210 210 210 209 209 210 211 210 209 210 211 212 212 213 216 221 226 228 231 235 237 239 242 247 249 248 249 254 261 270 279 284 284 281 272 264 255 249 247 243 239 239 243 246 245 246 248 248 244 239 239 246 247 244 242 243 246 247 247 245 246
211 212 212 212 211 211 210 210 210 210 211 212 211 210 209 208 208 209 211 214 214 216 219 223 227 229 230 232 234 233 234 237 242 246 250 257 264 273 280 284 286 284 279 270 260 251 247 243 240 238 239 243 243 244 247 247 244 241 242 248 249 246 244 245 246 246 245 246 247
211 212 212 212 212 212 212 212 211 210 211 213 212 212 211 210 209 208 210 213 216 218 220 223 229 232 233 232 233 234 234 236 240 245 251 257 264 271 276 281 282 283 282 276 268 259 251 247 244 241 240 239 237 237 238 241 240 240 242 245 246 245 245 247 247 246 246 248 248
212 212 212 212 213 213 214 214 212 211 212 215 216 217 218 219 217 216 216 217 219 221 223 226 231 233 233 232 233 234 236 238 241 243 247 253 259 265 270 273 272 274 276 275 271 264 257 251 250 248 245 241 237 235 236 238 237 238 242 247 246 244 242 244 246 246 246 247 248
212 212 213 213 213 214 215 215 212 212 215 218 218 220 222 224 224 224 223 224 224 225 227 230 232 232 231 229 230 232 235 238 240 243 245 248 253 257 260 262 263 267 270 270 268 264 258 254 254 254 251 245 242 241 242 241 237 237 240 245 246 244 242 241 243 244 245 246 248
213 213 213 213 213 214 214 214 213 214 217 220 220 221 223 225 226 227 227 228 228 229 229 230 230 229 228 226 227 229 232 235 238 241 243 245 248 252 254 255 258 260 262 263 263 260 256 253 252 252 252 250 248 247 246 241 238 236 237 239 242 243 242 240 241 243 245 246 245
213 213 212 212 212 212 213 213 213 215 218 220 220 221 222 224 225 226 226 228 229 230 229 228 228 228 228 226 226 227 230 233 236 238 240 241 243 247 251 252 255 255 256 256 258 257 254 251 249 248 246 247 246 249 249 244 239 236 235 235 238 242 244 244 244 244 244 244 243
212 212 211 211 211 211 211 212 213 214 217 219 219 219 219 221 222 223 224 225 228 229 228 227 227 227 227 227 227 228 230 232 234 235 237 238 240 243 247 250 252 253 253 253 254 254 254 253 251 248 246 241 236 241 247 249 243 238 236 236 237 239 243 246 246 245 244 243 240
212 211 210 210 210 210 211 211 212 214 215 217 218 218 218 219 221 221 223 224 226 227 226 225 224 224 225 226 228 229 230 232 234 235 236 236 238 240 243 245 248 250 251 251 249 250 254 257 254 252 249 245 239 241 248 254 251 244 240 237 237 239 242 247 248 247 246 245 243
212 211 210 209 210 210 211 211 213 214 215 216 217 217 217 219 220 221 223 224 224 224 224 224 223 222 223 225 227 228 230 233 235 236 237 237 237 238 238 240 242 244 246 248 247 247 250 254 255 255 254 251 247 247 252 257 257 253 247 241 239 239 241 243 247 248 247 247 247
213 211 210 210 210 211 212 213 214 215 216 217 217 218 218 219 221 222 223 223 223 224 224 223 222 222 223 225 226 229 231 233 235 237 239 239 238 237 236 236 237 239 240 242 244 245 247 249 251 255 258 257 254 253 253 255 256 257 254 249 245 241 240 240 243 246 247 248 248
213 212 212 211 212 212 214 215 217 218 218 219 219 219 220 220 222 223 223 223 223 224 225 224 223 223 224 225 227 229 231 234 236 238 239 239 239 237 235 235 235 235 236 238 241 243 246 247 248 250 254 257 259 259 258 256 254 254 255 254 252 248 244 241 241 243 246 247 246
215 214 214 214 214 215 216 218 219 220 220 221 221 221 221 222 223 224 224 224 224 225 226 225 225 226 226 227 229 231 233 235 237 238 239 239 239 237 236 235 235 234 235 237 241 244 246 247 246 246 247 250 255 260 262 261 257 254 253 253 254 254 252 246 242 241 242 243 245
216 216 216 216 217 217 218 220 221 221 222 222 223 223 223 223 224 224 225 225 225 227 228 228 227 228 229 230 231 233 234 237 238 239 240 240 239 238 237 236 235 235 236 239 243 247 250 251 250 249 247 246 248 253 257 260 260 258 255 254 253 253 253 251 246 242 240 241 243
217 217 217 218 218 219 220 221 222 222 223 223 223 223 224 225 225 225 225 225 226 228 230 230 230 230 232 233 234 234 236 237 239 240 241 241 241 240 239 238 237 236 236 239 244 249 254 256 256 255 253 251 249 249 251 254 258 259 258 257 254 252 251 250 248 244 242 241 242
217 217 218 219 220 221 222 223 223 224 224 224 224 224 225 225 226 226 226 226 227 229 231 231 231 231 232 233 235 236 237 238 240 241 243 243 243 242 241 240 238 237 236 237 241 247 253 257 260 260 260 258 255 253 251 253 255 256 258 258 258 256 254 252 250 248 247 245 242
218 218 219 220 221 222 224 225 226 226 226 226 226 226 226 226 226 227 227 228 229 230 232 232 232 232 233 234 235 237 238 240 242 243 245 246 246 245 244 242 240 237 234 235 238 243 248 254 258 261 263 263 261 259 257 255 254 254 255 257 258 258 257 255 254 253 252 250 247
219 219 220 221 223 224 226 227 228 229 229 229 229 228 228 228 228 228 229 230 230 231 232 233 232 232 232 234 235 238 239 241 243 245 246 247 247 247 245 243 240 235 233 234 236 240 243 247 252 256 259 262 263 263 261 259 255 254 253 254 255 255 255 254 254 254 254 254 252
220 220 221 223 224 226 228 229 230 231 231 232 232 232 231 231 230 230 231 231 231 232 232 233 233 232 232 233 235 237 240 242 244 246 247 248 248 247 246 245 240 236 234 235 236 238 241 243 246 250 254 257 260 261 262 261 258 255 254 253 253 253 252 252 251 252 253 254 254
220 221 223 225 226 228 229 230 231 232 232 233 233 234 234 233 232 232 232 233 233 233 233 233 233 233 233 233 235 236 239 241 244 245 247 248 248 248 247 245 242 239 238 237 238 239 240 242 245 247 250 253 255 257 258 258 257 256 256 255 255 254 253 251 250 250 250 251 252
221 222 224 226 228 229 230 231 231 232 233 233 234 234 234 234 234 233 233 233 233 233 234 234 234 234 235 235 235 236 238 240 242 244 246 247 248 248 246 244 243 242 241 240 239 240 241 243 245 247 249 251 252 253 254 254 254 254 256 256 257 256 254 253 251 250 250 250 250
220 222 224 226 227 229 230 230 231 232 232 233 233 233 233 234 233 233 233 233 234 234 234 234 235 235 236 236 236 237 237 239 240 242 244 246 247 247 245 244 244 244 243 242 241 241 241 243 245 248 249 250 251 251 251 250 250 251 252 254 255 256 255 253 252 251 251 251 250
219 221 224 225 227 228 229 230 231 231 232 232 232 233 233 233 233 233 233 233 233 234 235 235 235 236 236 237 237 237 238 239 240 241 243 245 245 246 245 245 246 246 246 245 244 244 244 244 246 248 250 251 251 250 249 248 247 247 249 250 252 253 254 253 252 252 251 251 251
219 221 224 225 226 227 228 229 230 231 231 231 231 232 232 232 232 232 232 232 233 234 235 236 236 236 236 236 236 237 237 239 240 241 241 242 244 245 246 247 248 248 248 248 248 248 248 247 246 247 249 250 250 250 249 247 246 246 246 248 248 250 251 252 253 252 252 251 251
219 221 223 225 226 227 227 228 229 230 231 231 231 231 231 231 231 231 231 232 232 233 234 235 235 235 235 235 236 237 238 238 240 240 240 240 241 244 246 247 249 249 250 250 251 250 249 248 245 245 247 249 249 247 246 245 245 246 246 247 247 248 248 249 250 251 253 253 253
220 221 223 225 226 226 226 228 228 229 229 230 230 229 229 229 228 228 229 229 229 230 231 232 232 232 233 235 236 237 238 239 240 241 241 241 241 241 243 246 248 250 251 252 253 252 249 246 242 240 240 244 246 247 245 244 245 246 246 247 247 247 247 247 248 250 252 254 256
220 221 222 224 224 225 226 227 226 226 227 227 226 225 225 224 224 224 224 224 225 225 226 228 228 229 231 234 237 239 240 241 241 242 243 243 243 242 242 244 247 250 253 254 255 253 250 245 238 234 232 235 240 244 246 246 246 246 246 246 247 246 247 247 248 248 249 251 254
221 221 222 222 223 223 224 224 223 223 223 222 221 220 219 218 219 219 219 219 220 221 222 225 227 228 231 233 237 240 242 243 242 242 243 244 244 244 245 246 248 251 253 255 256 255 251 244 238 232 230 231 233 237 242 245 245 245 244 244 245 246 246 246 247 247 247 248 249
220 220 220 220 221 221 220 220 220 219 218 216 215 214 214 214 215 215 216 216 217 219 221 224 227 229 231 233 236 239 242 243 244 245 245 245 245 246 248 249 251 253 255 256 256 254 250 244 238 234 231 230 231 234 238 241 243 243 241 241 242 242 242 243 244 245 245 246 246
219 218 217 217 217 217 217 216 216 214 213 211 210 210 211 213 214 215 216 216 217 220 223 225 228 231 233 234 236 238 241 243 245 246 246 246 247 248 250 253 254 256 258 258 256 253 248 242 237 235 232 230 230 233 237 240 242 242 242 241 241 241 241 242 243 242 242 243 243
215 214 213 212 212 212 213 213 211 210 209 208 209 210 212 213 215 216 217 218 218 219 221 224 228 231 234 235 236 239 241 242 243 245 247 248 249 251 252 254 255 257 258 258 257 253 247 241 237 235 233 231 231 233 236 239 241 242 244 244 244 243 242 243 243 242 242 241 240
210 209 208 208 208 209 209 209 209 208 207 208 210 211 213 214 215 216 217 217 217 218 220 223 227 230 232 233 235 238 239 241 243 245 247 250 251 253 253 254 255 257 258 259 257 253 247 241 236 235 234 233 232 234 236 238 241 243 245 246 246 246 245 244 243 243 243 242 242
205 205 205 206 206 207 208 209 208 208 208 209 211 213 214 214 215 216 216 217 217 219 222 225 228 231 233 234 235 236 238 241 243 245 247 249 252 253 253 254 256 258 260 260 258 254 247 241 237 235 234 233 233 235 237 239 241 243 245 246 247 247 246 246 245 244 244 243 243
203 203 204 205 207 208 209 209 209 209 210 211 213 214 215 216 216 217 217 217 218 220 222 225 228 231 233 235 236 237 238 240 242 244 247 249 250 251 251 253 257 261 263 263 260 254 247 241 237 235 234 234 234 236 237 239 241 243 244 246 247 247 247 247 247 247 246 245 243
204 205 206 208 209 210 211 211 210 211 211 212 214 215 216 217 218 218 218 219 219 219 221 224 226 229 231 233 236 238 240 242 244 247 249 250 249 250 251 253 256 260 263 264 261 255 247 240 236 234 234 234 235 237 237 239 241 243 244 246 247 248 247 248 248 249 248 247 245
207 208 210 211 212 212 212 213 213 213 214 215 216 216 217 217 217 218 219 219 218 219 221 224 226 229 232 235 238 241 244 246 247 249 249 250 250 251 252 254 256 259 261 262 261 256 248 240 236 234 234 234 235 237 238 239 241 243 245 246 247 248 248 248 248 248 248 247 246
209 211 212 213 214 214 214 215 215 216 217 218 219 219 219 218 217 218 219 219 218 219 221 225 227 231 235 240 244 247 249 250 249 249 250 251 251 252 254 255 257 259 261 263 263 258 251 241 235 233 232 233 235 236 238 239 241 243 244 246 248 249 248 247 247 247 246 246 245
211 212 212 213 214 216 217 218 219 220 221 221 221 221 221 219 219 219 220 221 220 221 223 225 229 233 239 242 245 249 252 252 252 252 252 253 254 256 257 256 258 260 262 264 265 262 255 245 235 232 232 233 235 236 237 239 241 243 245 246 248 250 249 247 246 247 247 247 245
212 213 213 214 216 217 219 220 222 223 223 223 222 222 221 219 219 219 221 221 222 223 225 227 230 234 238 241 243 246 250 254 254 255 256 257 259 260 260 259 259 261 263 264 265 264 260 250 238 233 232 233 234 235 237 239 241 243 245 246 247 249 250 249 247 247 248 248 247
214 214 215 216 217 219 221 223 224 224 224 223 222 221 220 218 217 217 218 219 220 222 224 227 229 232 235 238 241 244 248 252 255 258 260 262 262 262 261 261 261 262 263 265 265 265 261 253 242 234 231 231 232 233 235 237 240 243 244 245 246 248 249 250 249 248 248 249 248